Location: Edinburgh
(55.9500°N, 3.1600°W)
Time: 09:48:59
(UTC+01:00)

N. Korean satellite - Pass Details

Date: 15 October 2017
Orbit: 459 x 517 km, 97.2° (Epoch: 19 October)

Event Time Altitude Azimuth Distance (km) Brightness Sun altitude
Rises 19:19:43 0° 177° (S) 2,533 10.2 -10.3°
Reaches altitude 10° 19:21:49 10° 183° (S) 1,649 9.3 -10.6°
Maximum altitude 19:25:16 50° 260° (W) 609 7.5 -11.0°
Drops below altitude 10° 19:28:42 10° 337° (NNW) 1,637 9.6 -11.5°
Sets 19:30:48 0° 343° (NNW) 2,513 10.5 -11.8°
